Location: Unspecified
(0.0000°N, 0.0000°E)
Time: 13:36:42
(UTC+00:00)

Explorer 7 - Pass Details

Date: 23 November 2019
Orbit: 485 x 680 km, 50.3° (Epoch: 08 December)

Event Time Altitude Azimuth Distance (km) Brightness Sun altitude
Rises 19:56:21 0° 237° (WSW) 3,002 11.7 -30.2°
Reaches altitude 10° 19:58:57 10° 249° (WSW) 2,100 10.7 -30.8°
Enters shadow 20:02:34 27° 295° (WNW) 1,282 8.9 -31.6°
